Tracking 19854 objects as of 22-Sep-2019
HD Live streaming from Space Station
objects crossing your sky now

SL-14 DEB

Track SL-14 DEB now!
10-day predictions


NORAD ID: 25187
Int'l Code: 1987-068N
Perigee: 811.6 km
Apogee: 837.8 km
Inclination: 82.6 °
Period: 101.2 minutes
Semi major axis: 7195 km
RCS: 0.0093 m2 (small)
Launch date: August 18, 1987
Source: Commonwealth of Independent States (former USSR) (CIS)
Launch site: PLESETSK MISSILE AND SPACE COMPLEX (PKMTR)

Note: This is SATELLITE DEBRIS
aabbcc
Your satellite tracking list
Your tracking list is empty




NASA's NSSDC Master Catalog

Two Line Element Set (TLE):
1 25187U 87068N   19265.04480939  .00000974  00000-0  43037-3 0  9992
2 25187  82.5515 208.9208 0018185  66.9396 293.3700 14.22309139108289
Source of the keplerian elements: AFSPC